| time (UTC) | temp F | wind direction | speed MPH | gust MPH | rain 1hr in | rain 24hr in | rain mn in | humidity % | barometer mb |
| 20260504050525 | 40 | 103 | 0.0 | 2.0 | 0.00 | 0.00 | 0.00 | 80 | 1011.1 |
| 20260504050022 | 40 | 83 | 1.0 | 2.0 | 0.00 | 0.00 | 0.00 | 78 | 1011.0 |
| 20260504045519 | 40 | 100 | 1.0 | 2.0 | 0.00 | 0.00 | 0.00 | 79 | 1011.0 |
| 20260504045014 | 40 | 100 | 1.0 | 2.0 | 0.00 | 0.00 | 0.00 | 80 | 1011.0 |
| 20260504044512 | 40 | 76 | 0.0 | 2.0 | 0.00 | 0.00 | 0.00 | 80 | 1010.8 |
| 20260504044009 | 41 | 77 | 1.0 | 1.0 | 0.00 | 0.00 | 0.00 | 77 | 1010.9 |
| 20260504043506 | 41 | 95 | 0.0 | 2.0 | 0.00 | 0.00 | 0.00 | 76 | 1010.9 |
| 20260504043003 | 41 | 117 | 0.0 | 2.0 | 0.00 | 0.00 | 0.00 | 74 | 1010.8 |
| 20260504042500 | 42 | 130 | 0.0 | 2.0 | 0.00 | 0.00 | 0.00 | 74 | 1010.9 |
| 20260504041957 | 42 | 124 | 1.0 | 2.0 | 0.00 | 0.00 | 0.00 | 74 | 1011.0 |
| 20260504041453 | 42 | 78 | 2.0 | 2.0 | 0.00 | 0.00 | 0.00 | 74 | 1011.1 |
| 20260504040948 | 43 | 95 | 1.0 | 2.0 | 0.00 | 0.00 | 0.00 | 72 | 1010.8 |
| 20260504040447 | 43 | 94 | 0.0 | 2.0 | 0.00 | 0.00 | 0.00 | 70 | 1010.8 |
| 20260504035942 | 44 | 89 | 1.0 | 2.0 | 0.00 | 0.00 | 0.00 | 68 | 1010.7 |
| 20260504035440 | 44 | 104 | 0.0 | 2.0 | 0.00 | 0.00 | 0.00 | 67 | 1011.0 |
| 20260504034936 | 45 | 126 | 0.0 | 1.0 | 0.00 | 0.00 | 0.00 | 69 | 1010.8 |
| 20260504034434 | 45 | 113 | 0.0 | 1.0 | 0.00 | 0.00 | 0.00 | 68 | 1011.2 |
| 20260504033931 | 45 | 93 | 1.0 | 2.0 | 0.00 | 0.00 | 0.00 | 69 | 1011.0 |
| 20260504033429 | 46 | 73 | 1.0 | 2.0 | 0.00 | 0.00 | 0.00 | 65 | 1011.0 |
| 20260504032926 | 46 | 122 | 2.0 | 2.0 | 0.00 | 0.00 | 0.00 | 64 | 1011.0 |
| 20260504032422 | 46 | 142 | 1.0 | 2.0 | 0.00 | 0.00 | 0.00 | 64 | 1011.0 |
| 20260504031919 | 46 | 103 | 0.0 | 0.0 | 0.00 | 0.00 | 0.00 | 65 | 1011.1 |
| 20260504031417 | 47 | 108 | 2.0 | 2.0 | 0.00 | 0.00 | 0.00 | 59 | 1010.9 |
| 20260504030913 | 46 | 116 | 2.0 | 2.0 | 0.00 | 0.00 | 0.00 | 63 | 1010.8 |
| 20260504030410 | 47 | 89 | 0.0 | 2.0 | 0.00 | 0.00 | 0.00 | 61 | 1010.8 |
| 20260504025906 | 46 | 109 | 2.0 | 2.0 | 0.00 | 0.00 | 0.00 | 60 | 1011.1 |
| 20260504025403 | 46 | 111 | 1.0 | 2.0 | 0.00 | 0.00 | 0.00 | 61 | 1011.1 |
| 20260504024900 | 46 | 102 | 1.0 | 2.0 | 0.00 | 0.00 | 0.00 | 64 | 1011.1 |
| 20260504024356 | 47 | 77 | 1.0 | 2.0 | 0.00 | 0.00 | 0.00 | 63 | 1011.3 |
| 20260504023854 | 48 | 41 | 1.0 | 2.0 | 0.00 | 0.00 | 0.00 | 63 | 1011.3 |
| 20260504023350 | 49 | 116 | 0.0 | 2.0 | 0.00 | 0.00 | 0.00 | 54 | 1011.2 |
| 20260504022845 | 48 | 131 | 3.0 | 3.0 | 0.00 | 0.00 | 0.00 | 55 | 1011.2 |
| 20260504022343 | 48 | 143 | 2.0 | 2.0 | 0.00 | 0.00 | 0.00 | 56 | 1011.3 |
| 20260504021839 | 48 | 113 | 1.0 | 4.0 | 0.00 | 0.00 | 0.00 | 58 | 1011.4 |
| 20260504021337 | 48 | 93 | 2.0 | 3.0 | 0.00 | 0.00 | 0.00 | 54 | 1011.2 |
| 20260504020834 | 48 | 101 | 2.0 | 3.0 | 0.00 | 0.00 | 0.00 | 53 | 1011.1 |
| 20260504020330 | 49 | 51 | 2.0 | 2.0 | 0.00 | 0.00 | 0.00 | 57 | 1011.3 |
| 20260504015827 | 49 | 26 | 2.0 | 2.0 | 0.00 | 0.00 | 0.00 | 52 | 1011.1 |
| 20260504015323 | 48 | 101 | 2.0 | 3.0 | 0.00 | 0.00 | 0.00 | 52 | 1011.1 |
| 20260504014819 | 48 | 109 | 1.0 | 2.0 | 0.00 | 0.00 | 0.00 | 52 | 1011.1 |
| 20260504014315 | 48 | 112 | 2.0 | 2.0 | 0.00 | 0.00 | 0.00 | 52 | 1011.0 |
| 20260504013813 | 49 | 97 | 1.0 | 1.0 | 0.00 | 0.00 | 0.00 | 51 | 1011.1 |
| 20260504013311 | 49 | 124 | 0.0 | 1.0 | 0.00 | 0.00 | 0.00 | 50 | 1011.1 |
| 20260504012807 | 50 | 229 | 0.0 | 4.0 | 0.00 | 0.00 | 0.00 | 50 | 1010.9 |
| 20260504012305 | 49 | 119 | 2.0 | 3.0 | 0.00 | 0.00 | 0.00 | 50 | 1011.1 |
| 20260504011802 | 50 | 112 | 0.0 | 2.0 | 0.00 | 0.00 | 0.00 | 50 | 1010.9 |
| 20260504011258 | 50 | 22 | 0.0 | 2.0 | 0.00 | 0.00 | 0.00 | 50 | 1011.0 |
| 20260504010754 | 50 | 212 | 0.0 | 3.0 | 0.00 | 0.00 | 0.00 | 50 | 1011.0 |
| 20260504010249 | 50 | 293 | 0.0 | 1.0 | 0.00 | 0.00 | 0.00 | 50 | 1010.8 |
| 20260504005747 | 51 | 21 | 1.0 | 4.0 | 0.00 | 0.00 | 0.00 | 47 | 1010.8 |
| 20260504005244 | 50 | 29 | 0.0 | 2.0 | 0.00 | 0.00 | 0.00 | 49 | 1011.0 |
| 20260504004742 | 51 | 6 | 0.0 | 1.0 | 0.00 | 0.00 | 0.00 | 46 | 1010.9 |
| 20260504004238 | 52 | 163 | 0.0 | 4.0 | 0.00 | 0.00 | 0.00 | 44 | 1010.9 |
| 20260504003735 | 52 | 287 | 3.0 | 5.0 | 0.00 | 0.00 | 0.00 | 44 | 1010.8 |
| 20260504003232 | 52 | 247 | 10.0 | 10.0 | 0.00 | 0.00 | 0.00 | 44 | 1010.8 |
| 20260504002729 | 51 | 2 | 1.0 | 5.0 | 0.00 | 0.00 | 0.00 | 47 | 1010.6 |
| 20260504002225 | 51 | 33 | 0.0 | 2.0 | 0.00 | 0.00 | 0.00 | 47 | 1010.5 |
| 20260504001724 | 51 | 32 | 1.0 | 2.0 | 0.00 | 0.00 | 0.00 | 48 | 1010.5 |
| 20260504001220 | 51 | 154 | 1.0 | 3.0 | 0.00 | 0.00 | 0.00 | 46 | 1010.4 |
| 20260504000717 | 51 | 173 | 0.0 | 2.0 | 0.00 | 0.00 | 0.00 | 45 | 1010.3 |
| 20260504000214 | 51 | 141 | 0.0 | 2.0 | 0.00 | 0.00 | 0.00 | 46 | 1010.2 |
| 20260503235712 | 51 | 222 | 2.0 | 3.0 | 0.00 | 0.00 | 0.00 | 44 | 1010.2 |
| 20260503235209 | 52 | 225 | 2.0 | 4.0 | 0.00 | 0.00 | 0.00 | 43 | 1010.1 |
| 20260503234707 | 51 | 146 | 0.0 | 2.0 | 0.00 | 0.00 | 0.00 | 45 | 1010.2 |
| 20260503234205 | 51 | 125 | 0.0 | 2.0 | 0.00 | 0.00 | 0.00 | 45 | 1010.0 |
| 20260503233701 | 52 | 193 | 1.0 | 5.0 | 0.00 | 0.00 | 0.00 | 44 | 1010.0 |
| 20260503233157 | 53 | 223 | 1.0 | 3.0 | 0.00 | 0.00 | 0.00 | 44 | 1010.0 |
| 20260503232654 | 53 | 224 | 3.0 | 9.0 | 0.00 | 0.00 | 0.00 | 42 | 1010.0 |
| 20260503232151 | 53 | 233 | 3.0 | 3.0 | 0.00 | 0.00 | 0.00 | 43 | 1010.0 |
| 20260503231650 | 53 | 220 | 1.0 | 3.0 | 0.00 | 0.00 | 0.00 | 44 | 1010.0 |
| 20260503231145 | 52 | 196 | 2.0 | 4.0 | 0.00 | 0.00 | 0.00 | 46 | 1010.1 |
| 20260503230642 | 53 | 202 | 1.0 | 4.0 | 0.00 | 0.00 | 0.00 | 47 | 1010.0 |
| 20260503230139 | 53 | 132 | 2.0 | 3.0 | 0.00 | 0.00 | 0.00 | 45 | 1010.0 |
| 20260503225637 | 53 | 204 | 2.0 | 3.0 | 0.00 | 0.00 | 0.00 | 44 | 1010.1 |
| 20260503225136 | 53 | 225 | 4.0 | 6.0 | 0.00 | 0.00 | 0.00 | 42 | 1010.1 |
| 20260503224634 | 53 | 136 | 2.0 | 4.0 | 0.00 | 0.00 | 0.00 | 44 | 1010.2 |
| 20260503224132 | 53 | 260 | 1.0 | 3.0 | 0.00 | 0.00 | 0.00 | 43 | 1010.0 |
| 20260503223630 | 53 | 239 | 1.0 | 9.0 | 0.00 | 0.00 | 0.00 | 42 | 1010.1 |
| 20260503223125 | 53 | 254 | 6.0 | 11.0 | 0.00 | 0.00 | 0.00 | 42 | 1010.1 |
| 20260503222623 | 53 | 251 | 4.0 | 5.0 | 0.00 | 0.00 | 0.00 | 43 | 1010.1 |
| 20260503222121 | 53 | 233 | 4.0 | 9.0 | 0.00 | 0.00 | 0.00 | 42 | 1010.2 |
| 20260503221619 | 53 | 263 | 1.0 | 7.0 | 0.00 | 0.00 | 0.00 | 42 | 1010.2 |
| 20260503221116 | 53 | 216 | 5.0 | 9.0 | 0.00 | 0.00 | 0.00 | 42 | 1010.1 |
| 20260503220613 | 54 | 245 | 6.0 | 12.0 | 0.00 | 0.00 | 0.00 | 42 | 1010.2 |
| 20260503220109 | 55 | 241 | 4.0 | 8.0 | 0.00 | 0.00 | 0.00 | 39 | 1010.3 |
| 20260503215606 | 54 | 351 | 3.0 | 11.0 | 0.00 | 0.00 | 0.00 | 41 | 1010.4 |
| 20260503215103 | 54 | 244 | 8.0 | 10.0 | 0.00 | 0.00 | 0.00 | 42 | 1010.3 |
| 20260503214602 | 54 | 326 | 2.0 | 10.0 | 0.00 | 0.00 | 0.00 | 41 | 1010.2 |
| 20260503214057 | 54 | 17 | 5.0 | 9.0 | 0.00 | 0.00 | 0.00 | 42 | 1010.3 |
| 20260503213556 | 54 | 28 | 2.0 | 5.0 | 0.00 | 0.00 | 0.00 | 42 | 1010.5 |
| 20260503213052 | 54 | 254 | 4.0 | 10.0 | 0.00 | 0.00 | 0.00 | 42 | 1010.4 |
| 20260503212550 | 53 | 257 | 4.0 | 14.0 | 0.00 | 0.00 | 0.00 | 42 | 1010.4 |
| 20260503212047 | 53 | 256 | 7.0 | 8.0 | 0.00 | 0.00 | 0.00 | 43 | 1010.1 |
| 20260503211544 | 53 | 258 | 6.0 | 14.0 | 0.00 | 0.00 | 0.00 | 43 | 1010.5 |
| 20260503211039 | 52 | 187 | 2.0 | 20.0 | 0.00 | 0.00 | 0.00 | 45 | 1010.5 |
| 20260503210537 | 52 | 251 | 11.0 | 12.0 | 0.00 | 0.00 | 0.00 | 44 | 1010.4 |
| 20260503210032 | 53 | 304 | 2.0 | 14.0 | 0.00 | 0.00 | 0.00 | 44 | 1010.5 |
| 20260503205529 | 51 | 315 | 3.0 | 17.0 | 0.00 | 0.00 | 0.00 | 46 | 1010.7 |
| 20260503205026 | 50 | 313 | 2.0 | 20.0 | 0.00 | 0.00 | 0.00 | 46 | 1010.6 |
| 20260503204523 | 51 | 354 | 1.0 | 26.0 | 0.00 | 0.00 | 0.00 | 45 | 1010.4 |
| 20260503204020 | 52 | 256 | 4.0 | 15.0 | 0.00 | 0.00 | 0.00 | 43 | 1010.3 |
| 20260503203517 | 52 | 242 | 9.0 | 21.0 | 0.00 | 0.00 | 0.00 | 42 | 1010.3 |
| 20260503203014 | 52 | 244 | 5.0 | 23.0 | 0.00 | 0.00 | 0.00 | 43 | 1010.3 |
| 20260503202512 | 52 | 244 | 4.0 | 19.0 | 0.00 | 0.00 | 0.00 | 42 | 1010.3 |
| 20260503202010 | 52 | 289 | 6.0 | 15.0 | 0.00 | 0.00 | 0.00 | 41 | 1010.2 |
| 20260503201508 | 52 | 293 | 1.0 | 6.0 | 0.00 | 0.00 | 0.00 | 40 | 1010.3 |
| 20260503201004 | 52 | 268 | 8.0 | 12.0 | 0.00 | 0.00 | 0.00 | 42 | 1010.3 |
| 20260503200501 | 53 | 255 | 5.0 | 15.0 | 0.00 | 0.00 | 0.00 | 38 | 1010.5 |
| 20260503195957 | 53 | 256 | 3.0 | 8.0 | 0.00 | 0.00 | 0.00 | 38 | 1010.5 |
| 20260503195455 | 53 | 251 | 9.0 | 9.0 | 0.00 | 0.00 | 0.00 | 39 | 1010.6 |
| 20260503194951 | 53 | 226 | 7.0 | 21.0 | 0.00 | 0.00 | 0.00 | 38 | 1010.3 |
| 20260503194449 | 54 | 266 | 8.0 | 20.0 | 0.00 | 0.00 | 0.00 | 36 | 1010.5 |
| 20260503193943 | 52 | 276 | 4.0 | 15.0 | 0.00 | 0.00 | 0.00 | 37 | 1010.4 |
| 20260503193439 | 52 | 256 | 2.0 | 11.0 | 0.00 | 0.00 | 0.00 | 37 | 1010.6 |
| 20260503192935 | 53 | 330 | 3.0 | 16.0 | 0.00 | 0.00 | 0.00 | 37 | 1010.6 |
| 20260503192432 | 53 | 284 | 3.0 | 11.0 | 0.00 | 0.00 | 0.00 | 38 | 1010.7 |
| 20260503191927 | 53 | 286 | 2.0 | 5.0 | 0.00 | 0.00 | 0.00 | 36 | 1010.8 |
| 20260503191425 | 52 | 276 | 3.0 | 6.0 | 0.00 | 0.00 | 0.00 | 36 | 1010.7 |
| 20260503190921 | 55 | 334 | 5.0 | 9.0 | 0.00 | 0.00 | 0.00 | 34 | 1010.5 |
| 20260503190419 | 53 | 237 | 12.0 | 14.0 | 0.00 | 0.00 | 0.00 | 35 | 1010.7 |
| 20260503185915 | 52 | 280 | 11.0 | 17.0 | 0.00 | 0.00 | 0.00 | 36 | 1010.9 |
| 20260503185412 | 52 | 271 | 6.0 | 23.0 | 0.00 | 0.00 | 0.00 | 37 | 1010.8 |
| 20260503184911 | 53 | 265 | 5.0 | 16.0 | 0.00 | 0.00 | 0.00 | 36 | 1010.7 |
| 20260503184408 | 53 | 244 | 10.0 | 12.0 | 0.00 | 0.00 | 0.00 | 35 | 1010.8 |
| 20260503183904 | 52 | 269 | 5.0 | 14.0 | 0.00 | 0.00 | 0.00 | 36 | 1011.0 |
| 20260503183401 | 54 | 271 | 9.0 | 9.0 | 0.00 | 0.00 | 0.00 | 35 | 1011.0 |
| 20260503182858 | 51 | 257 | 4.0 | 20.0 | 0.00 | 0.00 | 0.00 | 36 | 1011.2 |
| 20260503182357 | 52 | 284 | 6.0 | 13.0 | 0.00 | 0.00 | 0.00 | 35 | 1011.3 |
| 20260503181854 | 51 | 320 | 5.0 | 7.0 | 0.00 | 0.00 | 0.00 | 35 | 1011.5 |
| 20260503181351 | 51 | 342 | 2.0 | 11.0 | 0.00 | 0.00 | 0.00 | 35 | 1011.2 |
| 20260503180847 | 51 | 324 | 9.0 | 14.0 | 0.00 | 0.00 | 0.00 | 34 | 1011.3 |
| 20260503180345 | 52 | 238 | 17.0 | 24.0 | 0.00 | 0.00 | 0.00 | 34 | 1011.3 |
| 20260503175841 | 52 | 247 | 9.0 | 14.0 | 0.00 | 0.00 | 0.00 | 35 | 1011.4 |
| 20260503175339 | 51 | 272 | 1.0 | 15.0 | 0.00 | 0.00 | 0.00 | 37 | 1011.3 |
| 20260503174835 | 51 | 231 | 11.0 | 16.0 | 0.00 | 0.00 | 0.00 | 37 | 1011.4 |
| 20260503174333 | 53 | 312 | 2.0 | 7.0 | 0.00 | 0.00 | 0.00 | 36 | 1011.6 |
| 20260503173828 | 51 | 217 | 3.0 | 12.0 | 0.00 | 0.00 | 0.00 | 39 | 1011.6 |
| 20260503173325 | 52 | 245 | 7.0 | 10.0 | 0.00 | 0.00 | 0.00 | 39 | 1011.6 |
| 20260503172822 | 50 | 244 | 4.0 | 6.0 | 0.00 | 0.00 | 0.00 | 37 | 1012.0 |
| 20260503172320 | 50 | 234 | 3.0 | 16.0 | 0.00 | 0.00 | 0.00 | 38 | 1011.8 |
| 20260503171815 | 49 | 252 | 5.0 | 12.0 | 0.00 | 0.00 | 0.00 | 37 | 1012.0 |
| 20260503171312 | 50 | 236 | 4.0 | 9.0 | 0.00 | 0.00 | 0.00 | 40 | 1012.1 |
| 20260503170810 | 48 | 316 | 2.0 | 9.0 | 0.00 | 0.00 | 0.00 | 39 | 1012.1 |
| 20260503170306 | 49 | 306 | 5.0 | 7.0 | 0.00 | 0.00 | 0.00 | 36 | 1012.2 |
| 20260503150658 | 45 | 291 | 7.0 | 13.0 | 0.00 | 0.00 | 0.00 | 37 | 1013.0 |
| 20260503150154 | 45 | 305 | 4.0 | 18.0 | 0.00 | 0.00 | 0.00 | 38 | 1013.2 |
| 20260503140119 | 44 | 231 | 2.0 | 7.0 | 0.00 | 0.00 | 0.00 | 47 | 1013.0 |
| 20260503131048 | 43 | 337 | 4.0 | 10.0 | 0.00 | 0.00 | 0.00 | 49 | 1013.3 |
| 20260503130545 | 42 | 271 | 3.0 | 17.0 | 0.00 | 0.00 | 0.00 | 52 | 1013.0 |
| 20260503110436 | 36 | 0 | 2.0 | 4.0 | 0.00 | 0.00 | 0.00 | 79 | 1013.0 |
| 20260503090327 | 36 | 236 | 0.0 | 4.0 | 0.00 | 0.00 | 0.00 | 79 | 1012.4 |
| 20260503081254 | 36 | 309 | 0.0 | 4.0 | 0.00 | 0.00 | 0.00 | 79 | 1012.4 |
| 20260503080750 | 36 | 347 | 1.0 | 3.0 | 0.00 | 0.00 | 0.00 | 79 | 1012.4 |
| 20260503080248 | 36 | 308 | 0.0 | 2.0 | 0.00 | 0.00 | 0.00 | 79 | 1012.3 |
| 20260503072724 | 35 | 32 | 0.0 | 3.0 | 0.00 | 0.00 | 0.00 | 83 | 1012.3 |
| 20260503072221 | 34 | 102 | 0.0 | 1.0 | 0.00 | 0.00 | 0.00 | 86 | 1012.2 |
| 20260503071718 | 35 | 109 | 2.0 | 2.0 | 0.00 | 0.00 | 0.00 | 85 | 1012.2 |
| 20260503071215 | 35 | 76 | 0.0 | 1.0 | 0.00 | 0.00 | 0.00 | 85 | 1012.4 |
| 20260503070711 | 35 | 118 | 2.0 | 2.0 | 0.00 | 0.00 | 0.00 | 83 | 1012.1 |
| 20260503070209 | 35 | 208 | 0.0 | 2.0 | 0.00 | 0.00 | 0.00 | 83 | 1012.3 |